CDT,Max TemperatureF,Mean TemperatureF,Min TemperatureF,Max Dew PointF,MeanDew PointF,Min DewpointF,Max Humidity, Mean Humidity, Min Humidity, Max Sea Level PressureIn, Mean Sea Level PressureIn, Min Sea Level PressureIn, Max VisibilityMiles, Mean VisibilityMiles, Min VisibilityMiles, Max Wind SpeedMPH, Mean Wind SpeedMPH, Max Gust SpeedMPH,PrecipitationIn, CloudCover, Events, WindDirDegrees
2012-10-1,69,54,39,49,37,26,78,44,21,30.05,29.99,29.90,10,10,7,23,12,32,0.00,1,,312
2012-10-2,73,52,30,33,26,20,81,44,15,30.01,29.91,29.81,10,9,4,16,6,22,0.00,0,,182
2012-10-3,78,60,43,33,28,22,59,33,13,29.88,29.82,29.72,10,10,7,18,8,25,0.00,0,,126
2012-10-4,62,50,39,40,33,29,77,64,33,30.25,30.08,29.73,10,10,7,36,23,44,0.00,7,,277
2012-10-5,47,38,28,29,24,22,83,59,39,30.26,30.24,30.21,10,10,10,24,15,32,0.00,4,,286
2012-10-6,43,32,21,28,24,15,79,65,43,30.36,30.30,30.25,10,10,7,20,12,25,0.00,5,,301
2012-10-7,56,38,21,22,18,14,82,50,20,30.27,30.06,29.85,10,10,7,17,8,23,0.00,0,,202
2012-10-8,66,48,29,39,28,16,62,47,28,29.84,29.72,29.60,10,10,7,24,11,31,0.00,5,Rain,210
2012-10-9,48,42,35,36,29,22,75,56,43,30.05,29.89,29.76,10,10,4,26,11,34,0.00,7,Rain,273
2012-10-10,57,40,24,30,24,20,90,52,24,30.13,30.02,29.80,10,10,5,18,8,23,0.00,3,,225
2012-10-11,56,40,23,33,26,14,75,53,30,30.43,30.16,29.79,10,10,7,18,12,24,0.00,1,,318
2012-10-12,54,34,14,22,15,10,84,49,19,30.44,30.27,29.94,10,10,7,24,7,29,0.00,2,,142
2012-10-13,63,50,37,49,44,20,93,73,29,29.93,29.75,29.67,10,7,4,20,9,25,0.00,4,,135
2012-10-14,59,48,34,41,34,28,94,66,37,29.95,29.87,29.76,10,9,4,20,8,26,0.00,1,,303
2012-10-15,66,45,24,39,32,22,92,58,31,29.97,29.86,29.66,10,9,5,18,7,22,0.00,1,,166
2012-10-16,75,62,48,44,41,39,72,49,30,29.65,29.49,29.34,10,9,3,12,6,,0.00,1,,176
2012-10-17,59,50,42,49,43,38,90,74,58,29.37,29.27,29.10,10,9,2,36,14,44,0.06,7,Rain,249
2012-10-18,47,44,40,46,41,38,95,92,84,29.45,29.31,29.20,10,5,1,32,19,43,0.30,8,Rain,292
2012-10-19,42,41,40,41,40,38,95,93,90,29.78,29.67,29.45,10,7,2,25,18,34,0.07,8,Rain,307
2012-10-20,52,45,38,44,41,37,97,89,71,29.82,29.76,29.72,10,9,5,16,6,17,0.00,5,,153
2012-10-21,59,50,41,47,43,40,95,82,61,29.94,29.81,29.70,10,8,3,14,9,18,0.00,1,,334
2012-10-22,57,49,41,48,45,40,97,79,65,29.98,29.92,29.83,10,9,4,18,10,29,0.00,4,,25
2012-10-23,63,57,51,59,55,47,99,93,80,29.83,29.73,29.66,10,4,0,10,6,,0.02,8,Fog-Rain-Thunderstorm,151
2012-10-24,56,48,39,54,43,36,95,86,72,29.92,29.87,29.82,10,10,7,18,11,29,0.00,8,,316
2012-10-25,39,36,32,36,30,27,99,84,70,30.23,30.00,29.84,10,8,2,26,18,34,0.05,8,Rain-Snow-Thunderstorm,301
2012-10-26,40,36,31,27,26,24,80,70,55,30.41,30.35,30.24,10,10,10,21,13,25,0.00,7,,259
2012-10-27,41,30,20,27,23,18,91,71,43,30.37,30.32,30.27,10,10,7,12,4,,0.00,3,,181
2012-10-28,47,39,31,32,29,26,84,70,54,30.30,30.26,30.20,10,10,7,15,7,21,0.00,6,,139
2012-10-29,53,44,34,30,28,26,76,62,39,30.23,30.20,30.16,10,10,10,20,13,28,0.00,3,,119
2012-10-30,46,39,32,31,27,23,81,65,46,30.20,30.16,30.09,10,10,7,12,6,,0.00,6,,100
2012-10-31,55,40,26,35,30,25,100,68,36,30.10,30.02,29.94,10,8,5,4,0,,0.00,3,,90